Weather History for KODX - January, 2013

Change the Weather History Date:

Sunday, January 13, 2013

  Actual Average Record
Temperature  
Mean Temperature 11 °F 24 °F  
Max Temperature 21 °F 37 °F 59 °F (2004)
Min Temperature 0 °F 12 °F -8 °F (1997)
Degree Days  
Heating Degree Days 54 41  
Month to date heating degree days 520 533  
Since 1 July heating degree days 3249 3257  
Cooling Degree Days 0 0  
Month to date cooling degree days 0 0  
Year to date cooling degree days 0 0  
Moisture  
Dew Point 1 °F    
Average Humidity 69    
Maximum Humidity 87    
Minimum Humidity 51    
Precipitation  
Precipitation 0.00 in 0.01 in 0.25 in (1930)
Month to date precipitation 0.02 0.12  
Year to date precipitation 0.02 0.12  
Sea Level Pressure  
Sea Level Pressure 30.32 in    
Wind  
Wind Speed 7 mph (WNW)    
Max Wind Speed 17 mph    
Max Gust Speed 21 mph    
Visibility 10 miles    
Events      
T = Trace of Precipitation, MM = Missing Value Source: NWS Daily Summary

Daily Weather History Graph

Daily Weather History Graph

Search for Another Location

Airport or City:

Trip Planner

Search our weather history database for the weather conditions in past years. The results will help you decide how hot, cold, wet, or windy it might be!

Date:

Astronomy

Jan. 13, 2013 Rise Set
Actual Time 8:00 AM CST 5:28 PM CST
Civil Twilight 7:30 AM CST 5:59 PM CST
Nautical Twilight 6:55 AM CST 6:33 PM CST
Astronomical Twilight 6:22 AM CST 7:07 PM CST
Moon 8:58 AM CST (1/13) 8:11 PM CST (1/13)
Length of Visible Light 10h 29m
Length of Day
9h 27m
Waxing Crescent, 5% of the Moon is Illuminated
Jan 13
Waxing Crescent
Jan 18
First Quarter
Jan 26
Full
Feb 3
Last Quarter
Feb 10
New

Hourly Weather History & Observations

Time (CST) Temp. Windchill Dew Point Humidity Pressure Visibility Wind Dir Wind Speed Gust Speed Precip Events Conditions
12:53 AM 5.0 °F -9.1 °F -0.9 °F 76% 30.25 in 10.0 mi NW 9.2 mph - N/A   Clear
1:53 AM 3.9 °F -9.4 °F -2.0 °F 76% 30.27 in 10.0 mi WNW 8.1 mph - N/A   Clear
2:53 AM 3.0 °F -9.3 °F -2.0 °F 80% 30.27 in 10.0 mi WNW 6.9 mph - N/A   Clear
3:53 AM 1.9 °F -10.6 °F -2.9 °F 80% 30.27 in 10.0 mi NW 6.9 mph - N/A   Clear
4:53 AM 1.0 °F -11.7 °F -4.0 °F 79% 30.26 in 10.0 mi WNW 6.9 mph - N/A   Clear
5:53 AM 1.0 °F -11.7 °F -4.0 °F 79% 30.27 in 10.0 mi WNW 6.9 mph - N/A   Clear
6:53 AM -0.0 °F - -5.1 °F 79% 30.29 in 10.0 mi Calm Calm - N/A   Clear
7:53 AM 1.9 °F -7.6 °F -4.0 °F 76% 30.31 in 10.0 mi WNW 4.6 mph - N/A   Overcast
8:53 AM 5.0 °F -2.1 °F -0.0 °F 80% 30.33 in 10.0 mi NW 3.5 mph - N/A   Overcast
9:53 AM 8.1 °F -9.0 °F 1.0 °F 73% 30.33 in 10.0 mi NW 15.0 mph - N/A   Overcast
10:53 AM 10.0 °F -5.9 °F 1.0 °F 67% 30.34 in 10.0 mi NW 13.8 mph - N/A   Overcast
11:53 AM 14.0 °F 1.2 °F 1.9 °F 59% 30.32 in 10.0 mi NW 10.4 mph - N/A   Clear
12:53 PM 17.1 °F 2.5 °F 3.0 °F 54% 30.29 in 10.0 mi NW 15.0 mph - N/A   Clear
1:53 PM 19.9 °F 7.3 °F 5.0 °F 52% 30.28 in 10.0 mi NW 12.7 mph - N/A   Clear
2:53 PM 21.0 °F 8.6 °F 6.1 °F 53% 30.30 in 10.0 mi NNW 12.7 mph - N/A   Clear
3:53 PM 19.0 °F 6.8 °F 6.1 °F 57% 30.32 in 10.0 mi WNW 11.5 mph - N/A   Mostly Cloudy
4:53 PM 18.0 °F 5.4 °F 6.1 °F 60% 30.33 in 10.0 mi NW 11.5 mph - N/A   Mostly Cloudy
5:53 PM 12.0 °F 2.7 °F 5.0 °F 73% 30.34 in 10.0 mi WNW 5.8 mph - N/A   Partly Cloudy
6:53 PM 9.0 °F -2.2 °F 3.0 °F 77% 30.37 in 10.0 mi WSW 6.9 mph - N/A   Clear
7:53 PM 7.0 °F -3.3 °F 1.9 °F 80% 30.38 in 10.0 mi WSW 5.8 mph - N/A   Clear
8:53 PM 8.1 °F - 1.9 °F 76% 30.38 in 10.0 mi Calm Calm - N/A   Clear
9:53 PM 3.9 °F - -0.0 °F 84% 30.40 in 10.0 mi Calm Calm - N/A   Clear
10:53 PM 3.2 °F - -0.4 °F 85% 30.26 in 10.0 mi Calm Calm - N/A   Clear
11:53 PM 3.0 °F - -0.9 °F 84% 30.41 in 10.0 mi Calm Calm - N/A   Clear